Zurück zum Katalog

STARLINK-5288

AktivKommunikationVLEO
NORAD 55307·PAYLOAD·🇺🇸 United States

Gestartet Jan 19, 2023 von Vandenberg Space Force Base

Loading…

Nächste Überflüge (nächste 24 Stunden)

TLE

AktuellSource: CelesTrak SupGP

Epoche: Sep 15, 2026, 01:55 UTC

1 55307C 23010AQ  26258.08034722 -.00044286  00000+0 -37105-2 0  2586
2 55307  69.9992 247.0904 0003890 267.7507 220.9772 14.98359711    14

Verfolge STARLINK-5288 in Echtzeit mit AllMySat

Download on the App Store